ABR5MS LROP-ELLX

Flight info

Callsign ABR5MS
Flight time N/A
Altitude 38000
Route POLUN DCT VIKBI DCT CRV DCT ANASA DCT NASSY DCT PODET DCT BERTA DCT UMVEG DCT KPT L608 KUNOD DCT KOVAN T894 BITBU Z110 BETEX
Aircraft B738/M-SDE2E3FGHIRWXY/LB1

Departure

Time 2026-05-04 08:29
Airport Bucharest Henri Coandă International Airport (LROP)

Arrival

Time N/A
Airport Luxembourg-Findel International Airport (ELLX)
Time Latitude Longitude Altitude Speed Heading
2026-05-04 07:49 44.56936 26.09453 322 ft 0 kts 173°
2026-05-04 08:19 44.56896 26.09623 321 ft 10 kts 86°
2026-05-04 08:19 44.56903 26.09723 321 ft 10 kts 80°
2026-05-04 08:20 44.56912 26.09820 321 ft 10 kts 83°
2026-05-04 08:20 44.56930 26.09908 321 ft 10 kts 36°
2026-05-04 08:20 44.56996 26.09916 320 ft 9 kts 355°
2026-05-04 08:20 44.57064 26.09904 321 ft 13 kts 353°
2026-05-04 08:21 44.57159 26.09892 321 ft 14 kts 354°
2026-05-04 08:21 44.57253 26.09878 321 ft 13 kts 354°
2026-05-04 08:21 44.57342 26.09864 321 ft 13 kts 354°
2026-05-04 08:21 44.57430 26.09852 321 ft 12 kts 355°
2026-05-04 08:22 44.57515 26.09841 321 ft 12 kts 355°
2026-05-04 08:22 44.57589 26.09874 321 ft 12 kts 60°
2026-05-04 08:24 44.57662 26.10747 321 ft 16 kts 84°
2026-05-04 08:24 44.57675 26.10923 321 ft 19 kts 83°
2026-05-04 08:24 44.57688 26.11109 321 ft 19 kts 84°
2026-05-04 08:24 44.57702 26.11289 321 ft 18 kts 85°
2026-05-04 08:25 44.57717 26.11460 321 ft 17 kts 83°
2026-05-04 08:25 44.57728 26.11628 320 ft 17 kts 84°
2026-05-04 08:25 44.57740 26.11786 321 ft 16 kts 84°
2026-05-04 08:25 44.57752 26.11944 321 ft 17 kts 84°
2026-05-04 08:26 44.57765 26.12108 321 ft 17 kts 84°
2026-05-04 08:27 44.57976 26.12770 322 ft 3 kts 316°
2026-05-04 08:28 44.57982 26.12686 322 ft 16 kts 264°
2026-05-04 08:28 44.57963 26.12407 321 ft 56 kts 264°
2026-05-04 08:28 44.57895 26.11538 322 ft 121 kts 264°
2026-05-04 08:28 44.57783 26.10117 370 ft 168 kts 263°
2026-05-04 08:29 44.57667 26.08423 983 ft 177 kts 265°
2026-05-04 08:29 44.57557 26.06718 1824 ft 179 kts 266°
2026-05-04 08:29 44.57435 26.04932 2617 ft 185 kts 266°
2026-05-04 08:31 44.54164 25.89178 5660 ft 312 kts 253°
2026-05-04 08:33 44.49241 25.68980 10750 ft 352 kts 258°
2026-05-04 08:33 44.48509 25.65630 11240 ft 365 kts 249°
2026-05-04 08:35 44.36833 25.45859 16735 ft 382 kts 232°
2026-05-04 08:35 44.35177 25.42903 17520 ft 384 kts 234°
2026-05-04 08:35 44.33556 25.39966 18334 ft 385 kts 234°
2026-05-04 08:35 44.31920 25.36994 19023 ft 387 kts 233°
2026-05-04 08:37 44.22942 25.17641 22512 ft 408 kts 261°
2026-05-04 08:37 44.22925 25.13669 23102 ft 410 kts 277°
2026-05-04 08:37 44.23399 25.09730 23636 ft 414 kts 281°
2026-05-04 08:38 44.23917 25.05800 24049 ft 418 kts 279°
2026-05-04 08:38 44.24218 25.03082 24355 ft 420 kts 277°
2026-05-04 08:38 44.24647 24.97712 24986 ft 422 kts 274°
2026-05-04 08:40 44.25715 24.69721 27755 ft 443 kts 271°
2026-05-04 08:40 44.25871 24.65460 28113 ft 446 kts 272°
2026-05-04 08:40 44.26142 24.61131 28460 ft 450 kts 275°
2026-05-04 08:41 44.26504 24.56779 28812 ft 453 kts 276°
2026-05-04 08:41 44.26905 24.52368 29160 ft 457 kts 276°
2026-05-04 08:41 44.27308 24.47949 29501 ft 460 kts 276°
2026-05-04 08:41 44.27702 24.43503 29822 ft 463 kts 275°
2026-05-04 08:42 44.28088 24.39015 30143 ft 466 kts 275°
2026-05-04 08:42 44.28466 24.34497 30414 ft 469 kts 275°
2026-05-04 08:42 44.28837 24.29998 30698 ft 471 kts 276°
2026-05-04 08:42 44.29209 24.25428 31012 ft 472 kts 276°
2026-05-04 08:43 44.29575 24.20913 31316 ft 473 kts 276°
2026-05-04 08:43 44.29943 24.16340 31700 ft 472 kts 277°
2026-05-04 08:43 44.30309 24.11779 32128 ft 469 kts 277°
2026-05-04 08:43 44.30670 24.07280 32534 ft 468 kts 278°
2026-05-04 08:44 44.31034 24.02728 32895 ft 467 kts 278°
2026-05-04 08:44 44.31392 23.98218 33214 ft 468 kts 278°
2026-05-04 08:46 44.31872 23.66514 35430 ft 464 kts 272°
2026-05-04 08:46 44.31851 23.62004 35719 ft 463 kts 272°
2026-05-04 08:46 44.31838 23.57523 36021 ft 461 kts 272°
2026-05-04 08:46 44.31829 23.53057 36326 ft 459 kts 272°
2026-05-04 08:47 44.31820 23.48603 36628 ft 458 kts 272°
2026-05-04 08:47 44.31807 23.44146 36914 ft 456 kts 272°
2026-05-04 08:47 44.31793 23.39692 37186 ft 455 kts 272°
2026-05-04 08:47 44.31778 23.35292 37475 ft 454 kts 272°
2026-05-04 08:48 44.31760 23.30884 37757 ft 452 kts 272°
2026-05-04 08:48 44.31741 23.26514 37995 ft 452 kts 272°
2026-05-04 08:48 44.31720 23.22107 38149 ft 453 kts 272°
2026-05-04 08:49 44.31673 23.13255 38138 ft 454 kts 273°
2026-05-04 08:50 44.31456 22.82825 38142 ft 445 kts 273°
2026-05-04 08:51 44.31380 22.74136 38148 ft 445 kts 273°
2026-05-04 08:51 44.31299 22.65508 38149 ft 446 kts 273°
2026-05-04 08:52 44.31391 22.56853 38144 ft 445 kts 281°
2026-05-04 08:52 44.32983 22.48613 38160 ft 439 kts 295°
2026-05-04 08:54 44.41999 22.16554 38152 ft 443 kts 295°
2026-05-04 08:55 44.44208 22.08499 38161 ft 441 kts 295°
2026-05-04 08:55 44.46397 22.00493 38163 ft 439 kts 295°
2026-05-04 09:01 44.68617 21.17753 38191 ft 434 kts 294°
2026-05-04 09:01 44.70711 21.09807 38186 ft 435 kts 294°
2026-05-04 09:02 44.72815 21.01794 38179 ft 436 kts 294°
2026-05-04 09:02 44.74904 20.93807 38184 ft 435 kts 294°
2026-05-04 09:03 44.76999 20.85775 38192 ft 434 kts 294°
2026-05-04 09:03 44.79067 20.77816 38180 ft 433 kts 294°
2026-05-04 09:04 44.81129 20.69858 38181 ft 431 kts 294°
2026-05-04 09:04 44.83176 20.61926 38179 ft 430 kts 294°
2026-05-04 09:05 44.85211 20.54019 38182 ft 428 kts 294°
2026-05-04 09:05 44.87234 20.46130 38181 ft 427 kts 293°
2026-05-04 09:06 44.89248 20.38247 38182 ft 426 kts 293°
2026-05-04 09:08 44.97192 20.06902 38182 ft 424 kts 293°
2026-05-04 09:08 44.99168 19.99035 38184 ft 424 kts 293°
2026-05-04 09:09 45.00819 19.92447 38185 ft 424 kts 293°
2026-05-04 09:09 45.02780 19.84593 38181 ft 425 kts 292°
2026-05-04 09:10 45.05061 19.75423 38180 ft 425 kts 292°
2026-05-04 09:10 45.06702 19.68801 38178 ft 426 kts 292°
2026-05-04 09:11 45.08646 19.60932 38173 ft 426 kts 292°
2026-05-04 09:11 45.10595 19.53019 38172 ft 426 kts 292°
2026-05-04 09:12 45.12547 19.45066 38177 ft 426 kts 292°
2026-05-04 09:14 45.20262 19.13345 38167 ft 425 kts 291°
2026-05-04 09:14 45.22174 19.05414 38167 ft 424 kts 291°
2026-05-04 09:15 45.24077 18.97495 38157 ft 424 kts 291°
2026-05-04 09:15 45.25972 18.89576 38155 ft 423 kts 291°
2026-05-04 09:17 45.34390 18.54069 38164 ft 421 kts 290°
2026-05-04 09:18 45.36245 18.46168 38168 ft 421 kts 290°
2026-05-04 09:18 45.38094 18.38259 38169 ft 421 kts 290°
2026-05-04 09:19 45.39934 18.30364 38161 ft 421 kts 290°
2026-05-04 09:19 45.41763 18.22486 38166 ft 421 kts 290°
2026-05-04 09:20 45.43594 18.14577 38166 ft 421 kts 290°
2026-05-04 09:20 45.45562 18.06726 38169 ft 419 kts 294°
2026-05-04 09:21 45.47895 17.99126 38157 ft 419 kts 295°
2026-05-04 09:21 45.50264 17.91574 38159 ft 419 kts 295°
2026-05-04 09:22 45.52620 17.83950 38162 ft 419 kts 295°
2026-05-04 09:22 45.54948 17.76326 38154 ft 419 kts 295°
2026-05-04 09:23 45.57261 17.68700 38147 ft 419 kts 294°
2026-05-04 09:23 45.59569 17.61065 38147 ft 419 kts 294°
2026-05-04 09:25 45.68753 17.30461 38141 ft 418 kts 294°
2026-05-04 09:26 45.71030 17.22814 38141 ft 418 kts 294°
2026-05-04 09:26 45.73303 17.15161 38136 ft 418 kts 294°
2026-05-04 09:27 45.75573 17.07491 38137 ft 418 kts 294°
2026-05-04 09:27 45.77828 16.99850 38132 ft 418 kts 294°
2026-05-04 09:28 45.80080 16.92196 38136 ft 418 kts 294°
2026-05-04 09:28 45.82342 16.84480 38128 ft 417 kts 294°
2026-05-04 09:29 45.84574 16.76847 38130 ft 417 kts 294°
2026-05-04 09:29 45.86821 16.69135 38127 ft 416 kts 294°
2026-05-04 09:30 45.89044 16.61485 38126 ft 416 kts 293°
2026-05-04 09:30 45.91273 16.53790 38124 ft 416 kts 293°
2026-05-04 09:31 45.93487 16.46124 38123 ft 416 kts 293°
2026-05-04 09:31 45.95702 16.38431 38121 ft 416 kts 293°
2026-05-04 09:32 45.97910 16.30733 38127 ft 416 kts 293°
2026-05-04 09:34 46.06672 15.99961 38115 ft 415 kts 292°
2026-05-04 09:34 46.08848 15.92256 38113 ft 415 kts 292°
2026-05-04 09:35 46.11017 15.84553 38111 ft 415 kts 292°
2026-05-04 09:35 46.13180 15.76846 38113 ft 415 kts 292°
2026-05-04 09:37 46.21862 15.45961 38104 ft 415 kts 292°
2026-05-04 09:38 46.24032 15.38257 38101 ft 415 kts 292°
2026-05-04 09:38 46.26204 15.30517 38109 ft 415 kts 292°
2026-05-04 09:39 46.28369 15.22770 38105 ft 415 kts 292°
2026-05-04 09:39 46.30521 15.15047 38112 ft 415 kts 292°
2026-05-04 09:40 46.32678 15.07279 38109 ft 415 kts 291°
2026-05-04 09:40 46.34824 14.99527 38111 ft 415 kts 291°
2026-05-04 09:42 46.43096 14.69409 38110 ft 415 kts 291°
2026-05-04 09:43 46.45210 14.61660 38110 ft 415 kts 291°
2026-05-04 09:43 46.47457 14.53909 38109 ft 415 kts 292°
2026-05-04 09:44 46.49739 14.46237 38101 ft 415 kts 292°
2026-05-04 09:46 46.58753 14.15396 38107 ft 415 kts 291°
2026-05-04 09:46 46.60993 14.07649 38109 ft 416 kts 291°
2026-05-04 09:47 46.63240 13.99853 38108 ft 417 kts 291°
2026-05-04 09:49 46.71803 13.69915 38094 ft 419 kts 291°
2026-05-04 09:51 46.79593 13.42355 38095 ft 418 kts 291°
2026-05-04 09:51 46.81788 13.34535 38099 ft 418 kts 291°
2026-05-04 09:52 46.83985 13.26678 38069 ft 418 kts 291°
2026-05-04 09:52 46.86171 13.18835 38086 ft 418 kts 291°
2026-05-04 09:53 46.88359 13.10963 38066 ft 417 kts 291°
2026-05-04 09:53 46.90527 13.03133 38071 ft 417 kts 290°
2026-05-04 09:54 46.92716 12.95201 38096 ft 418 kts 290°
2026-05-04 09:54 46.94886 12.87317 38064 ft 419 kts 291°
2026-05-04 09:55 46.97057 12.79401 38071 ft 418 kts 291°
2026-05-04 09:55 46.99221 12.71480 38095 ft 419 kts 290°
2026-05-04 09:56 47.01388 12.63517 38100 ft 421 kts 290°
2026-05-04 09:56 47.03551 12.55548 38065 ft 423 kts 290°
2026-05-04 09:57 47.05731 12.47489 38064 ft 424 kts 290°
2026-05-04 09:57 47.07889 12.39491 38065 ft 424 kts 290°
2026-05-04 09:58 47.10059 12.31415 38076 ft 423 kts 289°
2026-05-04 09:58 47.12208 12.23393 38081 ft 422 kts 289°
2026-05-04 10:00 47.20718 11.91348 38043 ft 419 kts 289°
2026-05-04 10:04 47.39461 11.37693 37987 ft 425 kts 294°
2026-05-04 10:04 47.42165 11.29932 38004 ft 425 kts 294°
2026-05-04 10:05 47.44856 11.22181 37999 ft 426 kts 294°
2026-05-04 10:05 47.46652 11.16995 38000 ft 426 kts 294°
2026-05-04 10:06 47.49138 11.09799 38010 ft 425 kts 294°
2026-05-04 10:08 47.58485 10.82562 38037 ft 423 kts 294°
2026-05-04 10:08 47.61134 10.74792 38036 ft 423 kts 294°
2026-05-04 10:09 47.63778 10.67011 38039 ft 422 kts 294°
2026-05-04 10:09 47.66414 10.59231 38039 ft 422 kts 294°
2026-05-04 10:10 47.69053 10.51417 38029 ft 423 kts 294°
2026-05-04 10:10 47.71672 10.43644 38024 ft 422 kts 294°
2026-05-04 10:11 47.74333 10.36449 38019 ft 426 kts 303°
2026-05-04 10:11 47.78457 10.30026 38034 ft 432 kts 317°
2026-05-04 10:12 47.83128 10.24415 38015 ft 433 kts 318°
2026-05-04 10:12 47.87841 10.18781 38025 ft 433 kts 317°
2026-05-04 10:13 47.92529 10.13087 38024 ft 433 kts 317°
2026-05-04 10:13 47.97183 10.07382 38022 ft 433 kts 317°
2026-05-04 10:14 48.01826 10.01669 38031 ft 433 kts 317°
2026-05-04 10:16 48.18757 9.80727 38019 ft 433 kts 317°
2026-05-04 10:16 48.23393 9.74961 38021 ft 433 kts 317°
2026-05-04 10:17 48.28019 9.69192 38023 ft 432 kts 316°
2026-05-04 10:19 48.47775 9.48316 38022 ft 436 kts 323°
2026-05-04 10:19 48.52847 9.43384 38020 ft 437 kts 323°
2026-05-04 10:20 48.57948 9.38383 38021 ft 437 kts 323°
2026-05-04 10:20 48.63047 9.33370 38023 ft 437 kts 323°
2026-05-04 10:21 48.68147 9.28345 38020 ft 437 kts 323°
2026-05-04 10:21 48.73245 9.23311 38024 ft 438 kts 323°
2026-05-04 10:22 48.80041 9.16580 38021 ft 438 kts 323°
2026-05-04 10:23 48.85146 9.11510 38018 ft 438 kts 323°